Hourly Data Report for July 03, 2022

TORONTO CITY
ONTARIO
Current Station Operator: ECCC - MSC

43°40'00.000" N
79°24'00.000" W
112.50 m
6158355
71508
XTO

Download Data

Hourly Data (July 2022)
Hourly Data Report for July 3, 2022
TIME
LST
Temp Definition
°C
Dew Point Definition
°C
Rel Hum Definition
%
Precip. Amount Definition
mm

Wind Dir Definition
10's deg

Wind Spd Definition
km/h
Visibility Definition
km
Stn Press Definition
kPa
Hmdx Definition


Wind Chill Definition


Weather Definition


00:00 19.7 5.5 39 0.0       100.32     LegendNANA
01:00 18.6 5.5 42 0.0       100.38     LegendNANA
02:00 17.7 5.9 46 0.0       100.39     LegendNANA
03:00 16.8 6.4 50 0.0       100.40     LegendNANA
04:00 15.9 6.6 54 0.0       100.42     LegendNANA
05:00 15.8 6.9 55 0.0       100.51     LegendNANA
06:00 15.7 7.6 59 0.0       100.57     LegendNANA
07:00 17.0 8.5 58 0.0       100.62     LegendNANA
08:00 19.5 9.3 52 0.0       100.69     LegendNANA
09:00 20.9 8.6 45 0.0       100.70     LegendNANA
10:00 21.7 9.8 47 0.0       100.75     LegendNANA
11:00 21.8 9.4 45 0.0       100.76     LegendNANA
12:00 22.4 9.8 45 0.0       100.71     LegendNANA
13:00 22.3 8.5 41 0.0       100.67     LegendNANA
14:00 24.3 8.7 37 0.0       100.65 25   LegendNANA
15:00 25.0 8.7 36 0.0       100.59 26   LegendNANA
16:00 25.1 8.5 35 0.0       100.59 26   LegendNANA
17:00 25.0 8.6 35 0.0       100.58 26   LegendNANA
18:00 24.0 9.6 40 0.0       100.56 25   LegendNANA
19:00 22.9 9.8 43 0.0       100.60     LegendNANA
20:00 21.6 9.8 47 0.0       100.61     LegendNANA
21:00 21.4 9.4 46 0.0       100.66     LegendNANA
22:00 19.4 9.7 53 0.0       100.70     LegendNANA
23:00 18.9 9.2 53 0.0       100.71     LegendNANA

Notes on Data Quality.

Legend

  • E = Estimated
  • M = Missing
  • NA = Not Available*
  • [empty] = Indicates an unobserved value
Date modified: